[[{"header":{"parameterUnit":"m.s-1","parameterCategory":1,"la1":30.2991,"la2":30.254,"lo1":-89.0895,"lo2":-89.0444,"dy":0.0017,"dx":0.0017,"nx":28,"ny":28,"refTime":"2025-08-27T09:00:00:Z","depth":0,"parameterNumber":2,"parameterNumberName":"U-component_of_WINDS"},"data":[0,0,0,0,0,0,0,0,0,0,0,0,0,0,0,0,0,0,0,0,0,0,0,0,0,0,0,0,0,0,0,0,0,0,0,0,0,0,0,0,0,0,0,0,0,0,0,0,0,0,0,0,0,0,0,0,0,0,-3.7749,-3.7749,0,-3.7812,-3.7812,-3.7813,-3.774,-3.7737,-3.7734,-3.7731,-3.78,-3.7805,-3.7809,0,0,0,0,0,0,0,0,0,0,0,0,0,-3.7568,-3.7572,-3.7748,-3.7749,-3.775,-3.7812,-3.7812,-3.7813,-3.774,-3.7737,-3.7733,-3.773,-3.7799,-3.7804,-3.7809,0,0,0,0,0,0,0,0,0,0,0,0,0,-3.7641,-3.7573,-3.7748,-3.7721,-3.7719,-3.7811,-3.7812,-3.7814,-3.7741,-3.7737,-3.7732,-3.7729,-3.7797,-3.7804,-3.781,-3.7934,0,0,-3.783,-3.7833,0,0,0,0,0,0,0,0,-3.7637,-3.7647,-3.7724,-3.7723,-3.7721,-3.7763,-3.7774,-3.7854,-3.7742,-3.7733,-3.7731,-3.7726,-3.7792,-3.7799,-3.782,-3.7937,-3.794,-3.7831,-3.7835,-3.7838,-3.784,0,0,0,0,0,0,0,-3.7632,-3.7644,-3.7774,-3.7725,-3.7723,-3.7706,-3.7712,-3.7789,-3.7785,-3.7733,-3.7728,-3.7736,-3.779,-3.7813,-3.7821,-3.7941,-3.7831,-3.7837,-3.7841,-3.7843,-3.8165,-3.817,0,0,0,0,0,0,-3.7629,-3.764,-3.7772,-3.7775,-3.7667,-3.7713,-3.7719,-3.7754,-3.7784,-3.7784,-3.774,-3.7732,-3.7804,-3.7813,-3.7823,-3.7971,-3.7838,-3.7844,-3.7848,-3.8161,-3.8166,-3.8171,0,0,0,0,0,0,-3.7626,-3.7642,-3.7769,-3.7707,-3.7721,-3.7721,-3.776,-3.7757,-3.7781,-3.7789,-3.7788,-3.7764,-3.7801,-3.7814,-3.7907,-3.7973,-3.7847,-3.7853,-3.8155,-3.8162,-3.8169,-3.8269,0,0,0,0,0,0,-3.7621,-3.7641,-3.7687,-3.7708,-3.7725,-3.7851,-3.7764,-3.7762,-3.7792,-3.7783,-3.7811,-3.7812,-3.7799,-3.7898,-3.7914,-3.798,-3.7858,-3.8149,-3.8158,-3.8166,-3.826,-3.8278,-3.8294,0,0,0,0,0,-3.7615,-3.7713,-3.769,-3.7706,-3.7783,-3.7855,-3.7865,-3.7847,-3.7797,-3.7845,-3.785,-3.7811,-3.7962,-3.7908,-3.7925,-3.7994,-3.8145,-3.8156,-3.8166,-3.8252,-3.8274,-3.8293,0,0,0,0,0,0,-3.7702,-3.7716,-3.769,-3.7798,-3.7826,-3.7843,-3.7902,-3.7871,-3.7915,-3.7905,-3.7881,-3.7888,-3.7988,-3.8,-3.7939,-3.8116,-3.8046,-3.806,-3.8105,-3.8127,-3.8144,-3.814,-3.7864,0,0,0,0,0,-3.7733,-3.779,-3.7799,-3.7894,-3.7909,-3.7903,-3.7934,-3.7917,-3.7946,-3.7958,-3.7969,-3.8,-3.8054,-3.8091,-3.8141,-3.826,-3.8266,-3.8316,-3.8333,-3.8347,-3.8361,-3.8426,-3.8449,-3.8205,-3.8205,-3.8205,0,0,-3.78,-3.7814,-3.7852,-3.7912,-3.7931,-3.7992,-3.7914,-3.7981,-3.8026,-3.7968,-3.8058,-3.8067,-3.8099,-3.8207,-3.8254,-3.822,-3.8429,-3.836,-3.8371,-3.8377,-3.8439,-3.8462,-3.8483,-3.8212,-3.8211,-3.821,0,0,-3.7952,-3.7968,-3.8049,-3.807,-3.81,-3.8095,-3.8115,-3.8136,-3.814,-3.8229,-3.8187,-3.824,-3.8334,-3.8359,-3.8384,-3.8545,-3.8513,-3.8562,-3.8653,-3.8717,-3.8737,-3.8754,-3.8813,-3.8835,-3.8575,-3.8575,-3.8576,0,-3.8032,-3.812,-3.8095,-3.8165,-3.8194,-3.8142,-3.8225,-3.8247,-3.8293,-3.8315,-3.8274,-3.8391,-3.8409,-3.8522,-3.8561,-3.8582,-3.8605,-3.856,-3.8735,-3.8752,-3.8768,-3.8825,-3.8847,-3.8581,-3.8581,-3.858,-3.858,0,-3.8217,-3.8279,-3.8341,-3.8385,-3.842,-3.8497,-3.8485,-3.8523,-3.8503,-3.8503,-3.8595,-3.8614,-3.8668,-3.8693,-3.8674,-3.8804,-3.8782,-3.8739,-3.8668,-3.8798,-3.8851,-3.8872,-3.859,-3.8588,-3.8586,-3.8585,0,0,-3.8429,-3.8457,-3.8481,-3.85,-3.8529,-3.8577,-3.8651,-3.8703,-3.8737,-3.877,-3.8833,-3.8913,-3.8874,-3.8902,-3.8885,-3.8941,-3.907,-3.8892,-3.8892,-3.8926,-3.9216,-3.925,-3.9276,-3.9047,-3.9051,-3.9054,-3.9214,0,-3.8583,-3.8711,-3.869,-3.8815,-3.8872,-3.8824,-3.8888,-3.8914,-3.8916,-3.8966,-3.8968,-3.9026,-3.8968,-3.8985,-3.9038,-3.9043,-3.9129,-3.9031,-3.9108,-3.9111,-3.9104,-3.9303,-3.9339,-3.949,-3.9235,-3.9238,-3.9241,0,-3.8781,-3.882,-3.895,-3.897,-3.8993,-3.9052,-3.9098,-3.9145,-3.9174,-3.9171,-3.9202,-3.9176,-3.9251,-3.9177,-3.9282,-3.9216,-3.9246,-3.9254,-3.9259,-3.9268,-3.9186,-3.932,-3.9537,-3.9561,-3.9273,-3.927,-3.9268,0,-3.8925,-3.901,-3.9099,-3.9117,-3.9142,-3.9185,-3.9197,-3.9221,-3.9253,-3.9293,-3.9314,-3.9363,-3.9391,-3.9429,-3.9417,-3.9364,-3.9526,-3.945,-3.9528,-3.9528,-3.9566,-3.9565,-3.9794,-3.9581,-3.9581,-3.958,-3.958,0,-3.9102,-3.9184,-3.9164,-3.9219,-3.931,-3.9285,-3.9376,-3.9383,-3.9405,-3.9461,-3.9421,-3.9476,-3.9454,-3.9508,-3.9498,-3.9588,-3.96,-3.9602,-3.9599,-3.9607,-3.9607,-3.9628,-3.9619,-3.9586,-3.9585,-3.9584,-3.9583,0,-3.928,-3.9269,-3.9363,-3.9379,-3.9384,-3.9451,-3.9465,-3.9517,-3.9514,-3.9587,-3.9602,-3.96,-3.966,-3.9651,-3.9718,-3.9712,-3.9824,-3.9807,-3.9815,-3.9812,-3.9891,-3.9885,-4.0144,-4.0178,-3.9941,-3.9943,-3.9945,0,-3.9394,-3.9456,-3.9478,-3.9512,-3.9527,-3.9583,-3.9615,-3.9594,-3.9629,-3.9666,-3.9714,-3.9771,-3.9815,-3.9915,-3.992,-3.9971,-3.9957,-4.0044,-3.9965,-3.9971,-3.9961,-3.9959,-3.9966,-4.0061,-4.0064,-4.0066,-4.0068,0,-3.96,-3.9591,-3.9638,-3.9685,-3.9724,-3.9759,-3.9791,-3.9822,-3.9803,-3.9845,-3.9906,-3.994,-4.0008,-4.0066,-4.0114,-4.0129,-4.0097,-4.0092,-4.0113,-4.0124,-4.0127,-4.0129,-3.9861,-4.0087,-4.0085,-4.0084,-4.0083,-4.0082,-3.9751,-3.9804,-3.9828,-3.9882,-3.9903,-3.9933,-3.9984,-3.9987,-4.0037,-4.009,-4.0074,-4.0144,-4.017,-4.0232,-4.0251,-4.0306,-4.0274,-4.0304,-4.0312,-4.0321,-4.0332,-4.0115,-4.0315,-4.0314,-4.0313,-4.0313,-4.0313,0,-3.9957,-3.9969,-4.0019,-4.0064,-4.0107,-4.007,-4.0103,-4.0142,-4.0203,-4.023,-4.0274,-4.0345,-4.04,-4.0409,-4.0462,-4.0504,-4.0491,-4.0519,-4.0517,-4.0522,-4.0356,-4.0333,-4.0529,-4.0529,-4.0529,-4.0529,-4.0529,-4.0529,-4.0069,-4.0157,-4.0151,-4.025,-4.0261,-4.0329,-4.0351,-4.0379,-4.0401,-4.0481,-4.0526,-4.053,-4.0551,-4.0604,-4.0654,-4.0655,-4.0678,-4.0713,-4.0709,-4.0554,-4.0533,-4.0513,-4.0491,-4.0717,-4.0717,-4.087,-4.0871,-4.0872]},{"header":{"parameterUnit":"m.s-1","parameterCategory":1,"la1":30.2991,"la2":30.254,"lo1":-89.0895,"lo2":-89.0444,"dy":0.0017,"dx":0.0017,"nx":28,"ny":28,"refTime":"2025-08-27T09:00:00:Z","depth":0,"parameterNumber":3,"parameterNumberName":"V-component_of_WINDS"},"data":[0,0,0,0,0,0,0,0,0,0,0,0,0,0,0,0,0,0,0,0,0,0,0,0,0,0,0,0,0,0,0,0,0,0,0,0,0,0,0,0,0,0,0,0,0,0,0,0,0,0,0,0,0,0,0,0,0,0,-3.2645,-3.2645,0,-3.2634,-3.2634,-3.2634,-3.2586,-3.2585,-3.2584,-3.2583,-3.2572,-3.2573,-3.2574,0,0,0,0,0,0,0,0,0,0,0,0,0,-3.2625,-3.2626,-3.2645,-3.2645,-3.2645,-3.2634,-3.2634,-3.2634,-3.2586,-3.2585,-3.2583,-3.2582,-3.2572,-3.2573,-3.2574,0,0,0,0,0,0,0,0,0,0,0,0,0,-3.2626,-3.2626,-3.2645,-3.262,-3.2617,-3.2635,-3.2634,-3.2634,-3.2586,-3.2585,-3.2583,-3.2581,-3.2572,-3.2573,-3.2574,-3.2615,0,0,-3.2578,-3.2578,0,0,0,0,0,0,0,0,-3.2626,-3.2627,-3.2624,-3.2622,-3.2619,-3.261,-3.2623,-3.2628,-3.2587,-3.2598,-3.2583,-3.2581,-3.2586,-3.2586,-3.2588,-3.2615,-3.2614,-3.2578,-3.2578,-3.2579,-3.2579,0,0,0,0,0,0,0,-3.2626,-3.2627,-3.2641,-3.2624,-3.2621,-3.2609,-3.2607,-3.2624,-3.2602,-3.2597,-3.2594,-3.2593,-3.2585,-3.2587,-3.2587,-3.2614,-3.2578,-3.2579,-3.2579,-3.258,-3.2673,-3.2675,0,0,0,0,0,0,-3.263,-3.2627,-3.2641,-3.2641,-3.2618,-3.2611,-3.2609,-3.2615,-3.2602,-3.2598,-3.2594,-3.2591,-3.2586,-3.2586,-3.2587,-3.2633,-3.2579,-3.258,-3.2581,-3.2672,-3.2674,-3.2676,0,0,0,0,0,0,-3.2629,-3.2631,-3.2642,-3.2633,-3.2633,-3.2613,-3.262,-3.2615,-3.2617,-3.2599,-3.2595,-3.2601,-3.2584,-3.2585,-3.2608,-3.2632,-3.2581,-3.2582,-3.267,-3.2672,-3.2675,-3.2727,0,0,0,0,0,0,-3.2629,-3.2631,-3.2647,-3.2634,-3.2634,-3.2664,-3.2621,-3.2616,-3.2619,-3.2614,-3.2604,-3.2601,-3.2583,-3.2607,-3.2609,-3.2633,-3.2583,-3.2667,-3.2671,-3.2674,-3.2723,-3.2732,-3.2739,0,0,0,0,0,-3.2628,-3.2662,-3.2648,-3.265,-3.2653,-3.2665,-3.2665,-3.2644,-3.2621,-3.2637,-3.2625,-3.2601,-3.2629,-3.261,-3.2612,-3.2636,-3.2666,-3.267,-3.2674,-3.272,-3.273,-3.2738,0,0,0,0,0,0,-3.2679,-3.266,-3.2644,-3.2675,-3.2672,-3.2657,-3.2675,-3.2655,-3.2659,-3.2654,-3.2627,-3.2626,-3.2653,-3.2647,-3.2625,-3.2675,-3.2643,-3.2648,-3.2678,-3.2687,-3.2694,-3.2695,-3.2584,0,0,0,0,0,-3.2694,-3.2705,-3.2688,-3.2717,-3.2716,-3.2696,-3.2701,-3.2684,-3.2681,-3.2679,-3.2669,-3.2667,-3.2675,-3.2681,-3.2687,-3.2723,-3.2719,-3.2741,-3.2748,-3.2754,-3.2759,-3.2776,-3.2785,-3.2689,-3.2689,-3.2689,0,0,-3.2725,-3.2716,-3.2724,-3.2727,-3.2723,-3.2735,-3.2696,-3.2711,-3.2719,-3.2681,-3.2702,-3.2695,-3.2691,-3.272,-3.2732,-3.2716,-3.2785,-3.2759,-3.2765,-3.2765,-3.2781,-3.279,-3.2799,-3.2692,-3.2691,-3.2691,0,0,-3.2787,-3.2781,-3.2804,-3.2801,-3.2795,-3.2781,-3.2787,-3.2775,-3.2768,-3.2789,-3.2761,-3.2771,-3.2786,-3.2783,-3.2784,-3.2845,-3.2823,-3.2848,-3.2887,-3.2905,-3.2912,-3.2919,-3.294,-3.2948,-3.2852,-3.2852,-3.2852,0,-3.2825,-3.2843,-3.2819,-3.2835,-3.2837,-3.2803,-3.2826,-3.2824,-3.2821,-3.2823,-3.2804,-3.2822,-3.2816,-3.2844,-3.2859,-3.2861,-3.2866,-3.2849,-3.2913,-3.2919,-3.2925,-3.2945,-3.2953,-3.2855,-3.2855,-3.2855,-3.2854,0,-3.289,-3.2903,-3.2922,-3.2919,-3.2923,-3.2943,-3.2922,-3.2929,-3.2912,-3.2901,-3.2922,-3.2914,-3.2918,-3.2924,-3.2908,-3.295,-3.294,-3.2918,-3.2885,-3.2938,-3.2956,-3.2963,-3.286,-3.2859,-3.2858,-3.2857,0,0,-3.2984,-3.2967,-3.2975,-3.2973,-3.2963,-3.2972,-3.2991,-3.2994,-3.3001,-3.3,-3.3014,-3.3027,-3.3007,-3.3008,-3.2991,-3.3007,-3.3055,-3.2983,-3.2982,-3.2996,-3.3099,-3.3115,-3.3125,-3.304,-3.3042,-3.3043,-3.31,0,-3.3042,-3.3072,-3.3051,-3.3084,-3.3095,-3.3063,-3.3078,-3.3075,-3.3064,-3.3072,-3.3061,-3.307,-3.3043,-3.3043,-3.3057,-3.3046,-3.3075,-3.3041,-3.3053,-3.3054,-3.3055,-3.3134,-3.3151,-3.3205,-3.3107,-3.3108,-3.3109,0,-3.3115,-3.3116,-3.315,-3.3138,-3.3142,-3.3157,-3.3158,-3.3166,-3.3161,-3.3152,-3.3153,-3.3132,-3.3149,-3.3118,-3.3141,-3.3119,-3.3122,-3.3118,-3.3119,-3.3119,-3.3084,-3.3136,-3.3222,-3.323,-3.312,-3.3119,-3.3118,0,-3.3178,-3.3189,-3.3211,-3.321,-3.3197,-3.3208,-3.3203,-3.3196,-3.3199,-3.3201,-3.3203,-3.3206,-3.3208,-3.3212,-3.3193,-3.3171,-3.3218,-3.3185,-3.3211,-3.3212,-3.3222,-3.3221,-3.331,-3.3226,-3.3225,-3.3225,-3.3225,0,-3.3246,-3.3268,-3.3239,-3.3252,-3.3276,-3.3252,-3.3276,-3.3268,-3.3262,-3.3273,-3.3246,-3.3257,-3.3231,-3.324,-3.3225,-3.3246,-3.3248,-3.3241,-3.3237,-3.3243,-3.3244,-3.3245,-3.324,-3.3227,-3.3227,-3.3226,-3.3226,0,-3.3321,-3.3303,-3.3324,-3.3309,-3.3306,-3.3324,-3.3312,-3.3324,-3.3312,-3.3326,-3.3328,-3.3309,-3.3318,-3.3299,-3.3305,-3.3296,-3.3325,-3.3315,-3.3327,-3.3324,-3.335,-3.3348,-3.3442,-3.3453,-3.3362,-3.3363,-3.3364,0,-3.3364,-3.338,-3.3368,-3.3373,-3.3369,-3.3378,-3.3381,-3.3358,-3.3362,-3.3358,-3.337,-3.3376,-3.338,-3.3395,-3.3382,-3.3387,-3.3377,-3.3409,-3.3377,-3.3383,-3.3376,-3.3375,-3.3377,-3.3416,-3.3417,-3.3418,-3.3418,0,-3.3444,-3.3434,-3.3439,-3.3441,-3.3445,-3.3446,-3.3445,-3.3451,-3.3426,-3.3433,-3.3441,-3.3444,-3.345,-3.3456,-3.3458,-3.3453,-3.3432,-3.3429,-3.3435,-3.3441,-3.3447,-3.3443,-3.3344,-3.3427,-3.3426,-3.3425,-3.3425,-3.3424,-3.3504,-3.3516,-3.3509,-3.3516,-3.3512,-3.3512,-3.3522,-3.3511,-3.3517,-3.3519,-3.3506,-3.3517,-3.3511,-3.3511,-3.3508,-3.3517,-3.3502,-3.3512,-3.3514,-3.3516,-3.352,-3.3446,-3.3517,-3.3517,-3.3517,-3.3517,-3.3517,0,-3.3581,-3.3575,-3.3581,-3.358,-3.3585,-3.3564,-3.3562,-3.3568,-3.3578,-3.3574,-3.3578,-3.3587,-3.3594,-3.3581,-3.3585,-3.3595,-3.3585,-3.3596,-3.3595,-3.3594,-3.3533,-3.3527,-3.3604,-3.3604,-3.3604,-3.3604,-3.3604,-3.3604,-3.3622,-3.3641,-3.3631,-3.3649,-3.3642,-3.3652,-3.3653,-3.3652,-3.3649,-3.366,-3.3665,-3.3657,-3.3649,-3.3653,-3.3658,-3.3654,-3.3656,-3.3671,-3.3664,-3.3607,-3.3599,-3.3591,-3.3585,-3.3672,-3.3672,-3.3724,-3.3725,-3.3725]}]]